• In Russia
  • List of Countries
  • For 7 days
  • Water Temperature
  • Satellite Maps
  • Weather Map
  • Weather Widgets
  • user-avatar
    Login

    Hourly Weather Albany

    Today, 24 September, Sunday

    Time Temperature Precipitation Wind Pressure Humidity
    00:00 +8°C° 0.2 mm 3 mps 753 mmHg 88%
    01:00 +7°C° 0.2 mm 3 mps 753 mmHg 88%
    02:00 +7°C° 0.2 mm 3 mps 752 mmHg 89%
    03:00 +7°C° 0.3 mm 3 mps 752 mmHg 88%
    04:00 +5°C° 0.3 mm 3 mps 752 mmHg 87%
    05:00 +5°C° 0.3 mm 3 mps 752 mmHg 86%
    06:00 +7°C° 0.3 mm 3 mps 752 mmHg 81%
    07:00 +8°C° 0.3 mm 3 mps 752 mmHg 77%
    08:00 +8°C° 0.3 mm 4 mps 752 mmHg 73%
    09:00 +11°C° 0.3 mm 3 mps 752 mmHg 67%
    10:00 +12°C° 0.3 mm 3 mps 752 mmHg 60%
    11:00 +15°C° 0.3 mm 2 mps 752 mmHg 54%
    12:00 +14°C° 0.3 mm 3 mps 752 mmHg 56%
    13:00 +14°C° 0.3 mm 3 mps 751 mmHg 57%
    14:00 +14°C° 0.3 mm 3 mps 751 mmHg 59%
    15:00 +14°C° 0.4 mm 4 mps 750 mmHg 66%
    16:00 +13°C° 0.4 mm 5 mps 750 mmHg 72%
    17:00 +11°C° 0.4 mm 6 mps 750 mmHg 79%
    18:00 +10°C° 0.5 mm 6 mps 750 mmHg 82%
    19:00 +10°C° 0.5 mm 6 mps 750 mmHg 85%
    20:00 +9°C° 0.5 mm 7 mps 751 mmHg 88%
    21:00 +9°C° 0.8 mm 7 mps 751 mmHg 89%
    22:00 +9°C° 0.8 mm 8 mps 751 mmHg 90%
    23:00 +9°C° 0.8 mm 8 mps 751 mmHg 92%

    Tomorrow, 25 September, Monday

    Time Temperature Precipitation Wind Pressure Humidity
    00:00 +9°C° 1.2 mm 8 mps 750 mmHg 91%
    01:00 +8°C° 1.2 mm 9 mps 750 mmHg 91%
    02:00 +8°C° 1.2 mm 9 mps 750 mmHg 91%
    03:00 +8°C° 0.7 mm 9 mps 750 mmHg 90%
    04:00 +8°C° 0.7 mm 9 mps 750 mmHg 90%
    05:00 +8°C° 0.7 mm 9 mps 750 mmHg 89%
    06:00 +8°C° 0.9 mm 9 mps 750 mmHg 89%
    07:00 +8°C° 0.9 mm 9 mps 751 mmHg 88%
    08:00 +9°C° 0.9 mm 8 mps 751 mmHg 88%
    09:00 +9°C° 0.5 mm 8 mps 751 mmHg 85%
    10:00 +10°C° 0.5 mm 7 mps 752 mmHg 83%
    11:00 +11°C° 0.5 mm 7 mps 752 mmHg 80%
    12:00 +11°C° 0.3 mm 7 mps 752 mmHg 76%
    13:00 +12°C° 0.3 mm 7 mps 751 mmHg 72%
    14:00 +12°C° 0.3 mm 7 mps 751 mmHg 67%
    15:00 +12°C° 0.3 mm 7 mps 752 mmHg 70%
    16:00 +11°C° 0.3 mm 8 mps 752 mmHg 73%
    17:00 +11°C° 0.3 mm 8 mps 752 mmHg 77%
    18:00 +10°C° 0.4 mm 8 mps 753 mmHg 81%
    19:00 +9°C° 0.4 mm 8 mps 753 mmHg 85%
    20:00 +9°C° 0.4 mm 8 mps 754 mmHg 89%
    21:00 +9°C° 0.2 mm 8 mps 754 mmHg 88%
    22:00 +8°C° 0.2 mm 7 mps 755 mmHg 87%
    23:00 +8°C° 0.2 mm 7 mps 755 mmHg 86%

    Day after tomorrow, 26 September, Tuesday

    Time Temperature Precipitation Wind Pressure Humidity
    00:00 +8°C° 0.1 mm 7 mps 755 mmHg 86%
    01:00 +8°C° 0.1 mm 6 mps 755 mmHg 85%
    02:00 +8°C° 0.1 mm 6 mps 755 mmHg 84%
    03:00 +8°C° 0.1 mm 6 mps 755 mmHg 82%
    04:00 +7°C° 0.1 mm 6 mps 755 mmHg 81%
    05:00 +7°C° 0.1 mm 6 mps 755 mmHg 79%
    06:00 +8°C° 0.1 mm 6 mps 756 mmHg 76%
    07:00 +9°C° 0.1 mm 6 mps 757 mmHg 73%
    08:00 +10°C° 0.1 mm 6 mps 757 mmHg 70%
    09:00 +10°C° 0.2 mm 6 mps 757 mmHg 69%
    10:00 +11°C° 0.2 mm 6 mps 758 mmHg 68%
    11:00 +11°C° 0.2 mm 6 mps 758 mmHg 67%
    12:00 +11°C° 0.2 mm 6 mps 758 mmHg 68%
    13:00 +11°C° 0.2 mm 6 mps 758 mmHg 68%
    14:00 +11°C° 0.2 mm 6 mps 758 mmHg 68%
    15:00 +12°C° 0.1 mm 5 mps 758 mmHg 70%
    16:00 +10°C° 0.1 mm 5 mps 759 mmHg 71%
    17:00 +10°C° 0.1 mm 5 mps 759 mmHg 73%
    18:00 +9°C° 0.1 mm 5 mps 759 mmHg 74%
    19:00 +8°C° 0.1 mm 4 mps 760 mmHg 76%
    20:00 +7°C° 0.1 mm 4 mps 761 mmHg 77%
    21:00 +7°C° 0 mm 4 mps 761 mmHg 77%
    22:00 +8°C° 0 mm 3 mps 761 mmHg 76%
    23:00 +8°C° 0 mm 3 mps 761 mmHg 76%

    27 September, Wednesday

    Time Temperature Precipitation Wind Pressure Humidity
    00:00 +7°C° 0 mm 3 mps 761 mmHg 77%
    01:00 +7°C° 0 mm 3 mps 761 mmHg 77%
    02:00 +7°C° 0 mm 3 mps 761 mmHg 78%
    03:00 +7°C° 0 mm 3 mps 761 mmHg 78%
    04:00 +7°C° 0 mm 3 mps 761 mmHg 79%
    05:00 +7°C° 0 mm 3 mps 761 mmHg 79%
    06:00 +8°C° 0 mm 3 mps 761 mmHg 78%
    07:00 +8°C° 0 mm 3 mps 762 mmHg 76%
    08:00 +9°C° 0 mm 3 mps 762 mmHg 75%
    09:00 +11°C° 0 mm 3 mps 762 mmHg 68%
    10:00 +12°C° 0 mm 4 mps 762 mmHg 62%
    11:00 +14°C° 0 mm 4 mps 762 mmHg 56%
    12:00 +14°C° 0.1 mm 4 mps 761 mmHg 58%
    13:00 +14°C° 0.1 mm 4 mps 761 mmHg 59%
    14:00 +14°C° 0.1 mm 4 mps 760 mmHg 61%
    15:00 +13°C° 0.2 mm 4 mps 760 mmHg 63%
    16:00 +13°C° 0.2 mm 4 mps 760 mmHg 66%
    17:00 +13°C° 0.2 mm 4 mps 760 mmHg 68%
    18:00 +12°C° 0.2 mm 3 mps 760 mmHg 72%
    19:00 +11°C° 0.2 mm 3 mps 760 mmHg 76%
    20:00 +9°C° 0.2 mm 3 mps 761 mmHg 79%
    21:00 +9°C° 0.2 mm 3 mps 760 mmHg 80%
    22:00 +9°C° 0.2 mm 3 mps 760 mmHg 80%
    23:00 +9°C° 0.2 mm 3 mps 760 mmHg 80%

    28 September, Thursday

    Time Temperature Precipitation Wind Pressure Humidity
    00:00 +8°C° 0.3 mm 4 mps 759 mmHg 81%
    01:00 +8°C° 0.3 mm 4 mps 759 mmHg 81%
    02:00 +8°C° 0.3 mm 4 mps 759 mmHg 82%
    03:00 +8°C° 0.4 mm 3 mps 759 mmHg 83%
    04:00 +8°C° 0.4 mm 3 mps 759 mmHg 85%
    05:00 +8°C° 0.4 mm 3 mps 759 mmHg 87%
    06:00 +9°C° 0.7 mm 3 mps 759 mmHg 86%
    07:00 +9°C° 0.7 mm 2 mps 759 mmHg 85%
    08:00 +10°C° 0.7 mm 2 mps 759 mmHg 85%
    09:00 +10°C° 0.8 mm 2 mps 759 mmHg 84%
    10:00 +12°C° 0.8 mm 2 mps 759 mmHg 83%
    11:00 +13°C° 0.8 mm 2 mps 759 mmHg 83%
    12:00 +13°C° 0.5 mm 2 mps 759 mmHg 81%
    13:00 +13°C° 0.5 mm 2 mps 759 mmHg 80%
    14:00 +14°C° 0.5 mm 2 mps 758 mmHg 79%
    15:00 +13°C° 0.1 mm 3 mps 758 mmHg 79%
    16:00 +13°C° 0.1 mm 3 mps 759 mmHg 79%
    17:00 +12°C° 0.1 mm 4 mps 759 mmHg 79%
    18:00 +12°C° 0.1 mm 4 mps 760 mmHg 81%
    19:00 +11°C° 0.1 mm 4 mps 760 mmHg 82%
    20:00 +10°C° 0.1 mm 4 mps 761 mmHg 84%
    21:00 +10°C° 0.1 mm 4 mps 761 mmHg 85%
    22:00 +10°C° 0.1 mm 4 mps 761 mmHg 85%
    23:00 +10°C° 0.1 mm 4 mps 761 mmHg 85%

    29 September, Friday

    Time Temperature Precipitation Wind Pressure Humidity
    00:00 +10°C° 0.2 mm 4 mps 762 mmHg 87%
    01:00 +10°C° 0.2 mm 4 mps 762 mmHg 89%
    02:00 +10°C° 0.2 mm 4 mps 762 mmHg 91%
    03:00 +10°C° 0.1 mm 4 mps 762 mmHg 90%
    04:00 +10°C° 0.1 mm 4 mps 762 mmHg 89%
    05:00 +10°C° 0.1 mm 4 mps 763 mmHg 89%
    06:00 +11°C° 0 mm 4 mps 763 mmHg 85%
    07:00 +11°C° 0 mm 4 mps 764 mmHg 82%
    08:00 +11°C° 0 mm 4 mps 764 mmHg 78%
    09:00 +12°C° 0 mm 4 mps 764 mmHg 73%
    10:00 +13°C° 0 mm 4 mps 764 mmHg 67%
    11:00 +13°C° 0 mm 4 mps 765 mmHg 62%
    12:00 +13°C° 0 mm 4 mps 764 mmHg 61%
    13:00 +14°C° 0 mm 4 mps 764 mmHg 60%
    14:00 +14°C° 0 mm 4 mps 764 mmHg 59%
    15:00 +14°C° 0 mm 4 mps 764 mmHg 61%
    16:00 +13°C° 0 mm 4 mps 764 mmHg 63%
    17:00 +13°C° 0 mm 4 mps 764 mmHg 66%
    18:00 +12°C° 0 mm 4 mps 765 mmHg 69%
    19:00 +11°C° 0 mm 4 mps 765 mmHg 73%
    20:00 +11°C° 0 mm 4 mps 766 mmHg 76%
    21:00 +10°C° 0 mm 3 mps 766 mmHg 77%
    22:00 +10°C° 0 mm 3 mps 765 mmHg 78%
    23:00 +10°C° 0 mm 3 mps 765 mmHg 79%
    Show more